User: anonymous   Login
Location: Elstree
(51.6403°N, 0.2969°W)
Time: 21:51:50
(UTC+00:00)
Language:

COSMOS 2251 DEB - Orbit

View from above orbital plane
View from above orbital plane
View from above satellite
View from above satellite

Ground track
Ground track

The orbit data is extracted from the following two-line orbital elements,

1 33826U 93036BT  22022.59691125  .00001261  00000-0  45826-3 0  9997
2 33826  74.0654 143.8047 0117732 189.3493 183.7164 14.30464640673485
Epoch (UTC): 22 January 2022 14:19:33
Eccentricity: 0.0117732
inclination: 74.0654°
perigee height: 706 km
apogee height: 874 km
right ascension of ascending node: 143.8047°
argument of perigee: 189.3493°
revolutions per day: 14.30464640
mean anomaly at epoch: 183.7164°
orbit number at epoch: 67348

The dashed part of the orbit path shows where the satellite is in the earth's shadow,  

DLR